Location: Unspecified
(0.0000°N, 0.0000°E)
Time: 01:30:06
(UTC+00:00)

Courier 1B Rocket - Pass Details

Date: 24 November 2019
Orbit: 920 x 1202 km, 28.2° (Epoch: 10 December)

Event Time Altitude Azimuth Distance (km) Brightness Sun altitude
Rises 16:58:10 0° 332° (NNW) 3,886 8.2 11.3°
Reaches altitude 10° 17:04:01 10° 8° (N) 3,011 7.3 10.0°
Maximum altitude 17:05:33 11° 20° (NNE) 2,980 7.2 9.6°
Drops below altitude 10° 17:07:06 10° 32° (NNE) 3,047 7.2 9.3°
Sets 17:13:11 0° 68° (ENE) 4,065 7.5 7.8°
